SWA402 MBPV-KMCO

Flight info

Callsign SWA402
Flight time N/A
Altitude 36000
Route SUMAC DCT OCTAL RIDES2
Aircraft B738/M-SDE2E3GIJ4RWZ/LB1D1

Departure

Time 2026-05-09 12:38
Airport Providenciales International Airport (MBPV)

Arrival

Time N/A
Airport Orlando International Airport (KMCO)
Time Latitude Longitude Altitude Speed Heading
2026-05-09 12:17 21.77572 -72.27094 36 ft 0 kts 34°
2026-05-09 12:28 21.77572 -72.27095 36 ft 0 kts 34°
2026-05-09 12:28 21.77565 -72.27100 36 ft 2 kts 29°
2026-05-09 12:28 21.77552 -72.27107 36 ft 2 kts 31°
2026-05-09 12:28 21.77539 -72.27116 35 ft 2 kts 31°
2026-05-09 12:29 21.77526 -72.27124 35 ft 2 kts 31°
2026-05-09 12:29 21.77515 -72.27131 35 ft 1 kts 46°
2026-05-09 12:29 21.77512 -72.27137 35 ft 0 kts 98°
2026-05-09 12:29 21.77513 -72.27145 36 ft 0 kts 92°
2026-05-09 12:33 21.77513 -72.27142 36 ft 2 kts 93°
2026-05-09 12:33 21.77510 -72.27106 34 ft 7 kts 101°
2026-05-09 12:33 21.77465 -72.27067 33 ft 10 kts 173°
2026-05-09 12:33 21.77401 -72.27089 33 ft 6 kts 223°
2026-05-09 12:34 21.77389 -72.27132 33 ft 7 kts 273°
2026-05-09 12:34 21.77392 -72.27196 33 ft 10 kts 271°
2026-05-09 12:34 21.77395 -72.27280 34 ft 12 kts 273°
2026-05-09 12:34 21.77403 -72.27382 35 ft 14 kts 274°
2026-05-09 12:35 21.77406 -72.27500 36 ft 17 kts 273°
2026-05-09 12:35 21.77412 -72.27621 38 ft 14 kts 272°
2026-05-09 12:35 21.77416 -72.27725 39 ft 12 kts 273°
2026-05-09 12:35 21.77421 -72.27811 40 ft 11 kts 274°
2026-05-09 12:36 21.77425 -72.27896 42 ft 11 kts 273°
2026-05-09 12:36 21.77429 -72.27983 44 ft 11 kts 272°
2026-05-09 12:36 21.77434 -72.28072 46 ft 12 kts 275°
2026-05-09 12:36 21.77458 -72.28149 48 ft 8 kts 323°
2026-05-09 12:37 21.77475 -72.28172 48 ft 2 kts 292°
2026-05-09 12:37 21.77476 -72.28191 49 ft 3 kts 255°
2026-05-09 12:37 21.77444 -72.28191 49 ft 8 kts 112°
2026-05-09 12:37 21.77431 -72.27985 44 ft 61 kts 93°
2026-05-09 12:38 21.77394 -72.27271 34 ft 127 kts 92°
2026-05-09 12:38 21.77340 -72.26133 239 ft 162 kts 93°
2026-05-09 12:38 21.77281 -72.24979 1032 ft 157 kts 94°
2026-05-09 12:38 21.77342 -72.23779 1656 ft 169 kts 73°
2026-05-09 12:39 21.78214 -72.22824 2109 ft 202 kts 25°
2026-05-09 12:39 21.79681 -72.22770 2674 ft 231 kts 346°
2026-05-09 12:39 21.81100 -72.23730 3249 ft 255 kts 315°
2026-05-09 12:39 21.82166 -72.25328 3939 ft 271 kts 302°
2026-05-09 12:40 21.83170 -72.27080 4562 ft 287 kts 304°
2026-05-09 12:40 21.84324 -72.28851 5534 ft 288 kts 308°
2026-05-09 12:40 21.85531 -72.30593 6368 ft 295 kts 308°
2026-05-09 12:40 21.86722 -72.32344 7438 ft 290 kts 308°
2026-05-09 12:41 21.87928 -72.34118 8090 ft 301 kts 309°
2026-05-09 12:41 21.89222 -72.35910 8991 ft 301 kts 311°
2026-05-09 12:41 21.90546 -72.37661 9783 ft 305 kts 312°
2026-05-09 12:41 21.91893 -72.39457 10452 ft 314 kts 311°
2026-05-09 12:42 21.93275 -72.41339 10921 ft 330 kts 311°
2026-05-09 12:42 21.94714 -72.43336 11362 ft 345 kts 310°
2026-05-09 12:42 21.96219 -72.45441 11775 ft 361 kts 310°
2026-05-09 12:42 21.97797 -72.47656 12192 ft 376 kts 310°
2026-05-09 12:43 21.99408 -72.49918 12811 ft 382 kts 310°
2026-05-09 12:43 22.01032 -72.52205 13504 ft 386 kts 310°
2026-05-09 12:43 22.02661 -72.54497 14244 ft 388 kts 310°
2026-05-09 12:43 22.04307 -72.56813 14933 ft 391 kts 310°
2026-05-09 12:44 22.05957 -72.59135 15641 ft 392 kts 310°
2026-05-09 12:44 22.07632 -72.61491 16298 ft 395 kts 310°
2026-05-09 12:44 22.09304 -72.63844 16949 ft 398 kts 310°
2026-05-09 12:44 22.10988 -72.66214 17599 ft 400 kts 310°
2026-05-09 12:45 22.12684 -72.68602 18196 ft 403 kts 309°
2026-05-09 12:45 22.14410 -72.71034 18847 ft 404 kts 309°
2026-05-09 12:45 22.16114 -72.73435 19434 ft 406 kts 309°
2026-05-09 12:45 22.17832 -72.75857 20040 ft 408 kts 309°
2026-05-09 12:46 22.19575 -72.78313 20625 ft 410 kts 309°
2026-05-09 12:46 22.21291 -72.80733 21174 ft 412 kts 309°
2026-05-09 12:46 22.23047 -72.83210 21714 ft 414 kts 309°
2026-05-09 12:46 22.24791 -72.85672 22305 ft 414 kts 309°
2026-05-09 12:47 22.26539 -72.88142 22820 ft 416 kts 308°
2026-05-09 12:47 22.28311 -72.90648 23311 ft 419 kts 308°
2026-05-09 12:47 22.30092 -72.93166 23782 ft 422 kts 308°
2026-05-09 12:47 22.31864 -72.95673 24262 ft 424 kts 308°
2026-05-09 12:48 22.33653 -72.98205 24762 ft 426 kts 308°
2026-05-09 12:48 22.35471 -73.00780 25228 ft 428 kts 308°
2026-05-09 12:48 22.37266 -73.03323 25640 ft 431 kts 308°
2026-05-09 12:48 22.39094 -73.05917 26114 ft 433 kts 308°
2026-05-09 12:49 22.40922 -73.08510 26513 ft 436 kts 308°
2026-05-09 12:49 22.42777 -73.11142 26966 ft 438 kts 308°
2026-05-09 12:49 22.44625 -73.13766 27376 ft 441 kts 308°
2026-05-09 12:49 22.46473 -73.16392 27812 ft 442 kts 307°
2026-05-09 12:50 22.48346 -73.19054 28154 ft 446 kts 307°
2026-05-09 12:50 22.50227 -73.21729 28600 ft 446 kts 307°
2026-05-09 12:50 22.52114 -73.24414 28971 ft 449 kts 307°
2026-05-09 12:50 22.54001 -73.27102 29348 ft 451 kts 307°
2026-05-09 12:51 22.55919 -73.29834 29749 ft 453 kts 307°
2026-05-09 12:51 22.57815 -73.32537 30334 ft 450 kts 307°
2026-05-09 12:51 22.59685 -73.35203 30944 ft 446 kts 307°
2026-05-09 12:51 22.61583 -73.37911 31439 ft 445 kts 307°
2026-05-09 12:52 22.63441 -73.40563 31984 ft 442 kts 307°
2026-05-09 12:52 22.65294 -73.43210 32453 ft 440 kts 307°
2026-05-09 12:52 22.67142 -73.45851 32880 ft 440 kts 307°
2026-05-09 12:52 22.68977 -73.48475 33365 ft 438 kts 307°
2026-05-09 12:53 22.70824 -73.51117 33815 ft 437 kts 307°
2026-05-09 12:53 22.72651 -73.53732 34266 ft 436 kts 307°
2026-05-09 12:53 22.74476 -73.56345 34693 ft 435 kts 307°
2026-05-09 12:53 22.76308 -73.58970 35139 ft 434 kts 307°
2026-05-09 12:54 22.78119 -73.61565 35553 ft 433 kts 307°
2026-05-09 12:54 22.79931 -73.64163 35924 ft 432 kts 307°
2026-05-09 12:54 22.81754 -73.66779 36049 ft 435 kts 307°
2026-05-09 12:55 22.85392 -73.72001 36050 ft 432 kts 307°
2026-05-09 12:55 22.89050 -73.77258 36050 ft 432 kts 307°
2026-05-09 12:56 22.92670 -73.82465 36050 ft 432 kts 307°
2026-05-09 12:56 22.96300 -73.87694 36047 ft 432 kts 307°